This is the latest recevied weather packets stored in our database for station/object N4QD-13. If no packets are shown the sender has not sent any weather packets the latest 10 day(s).
| Time | Temp. | Humidity | Pressure | Rain* | Wind** | Luminosity | Snow |
|---|---|---|---|---|---|---|---|
| 1778050503 | 19.44° C | 60% | 1010.9 hPa | 0 mm | - | 0 W/m² | - |
| 1778050199 | 19.44° C | 60% | 1010.9 hPa | 0 mm | - | 0 W/m² | - |
| 1778049896 | 18.89° C | 60% | 1010.9 hPa | 0 mm | - | 0 W/m² | - |
| 1778049592 | 18.89° C | 60% | 1010.9 hPa | 0 mm | - | 0 W/m² | - |
| 1778049290 | 18.89° C | 60% | 1011.2 hPa | 0 mm | - | 0 W/m² | - |
| 1778048987 | 18.89° C | 61% | 1011.1 hPa | 0 mm | - | 0 W/m² | - |
| 1778048685 | 18.89° C | 60% | 1011.3 hPa | 0 mm | - | 0 W/m² | - |
| 1778048381 | 18.89° C | 60% | 1011.3 hPa | 0 mm | - | 0 W/m² | - |
| 1778048078 | 18.89° C | 60% | 1011.5 hPa | 0 mm | - | 0 W/m² | - |
| 1778047776 | 18.89° C | 59% | 1011.5 hPa | 0 mm | - | 0 W/m² | - |
| 1778047474 | 18.89° C | 60% | 1011.7 hPa | 0 mm | - | 0 W/m² | - |
| 1778047170 | 18.33° C | 62% | 1011.5 hPa | 0 mm | - | 0 W/m² | - |
| 1778046868 | 18.89° C | 61% | 1011.6 hPa | 0 mm | - | 0 W/m² | - |
| 1778046564 | 18.33° C | 61% | 1012 hPa | 0 mm | - | 0 W/m² | - |
| 1778046261 | 18.33° C | 63% | 1011.9 hPa | 0 mm | - | 0 W/m² | - |
| 1778045957 | 19.44° C | 60% | 1011.9 hPa | 0 mm | - | 0 W/m² | - |
| 1778045656 | 20° C | 56% | 1012 hPa | 0 mm | - | 0 W/m² | - |
| 1778045354 | 20° C | 56% | 1012 hPa | 0 mm | - | 0 W/m² | - |
| 1778045052 | 20° C | 56% | 1012 hPa | 0 mm | - | 0 W/m² | - |
| 1778044750 | 20° C | 55% | 1012 hPa | 0 mm | - | 0 W/m² | - |
| 1778044446 | 20° C | 55% | 1012.1 hPa | 0 mm | - | 0 W/m² | - |
| 1778044143 | 20° C | 55% | 1011.8 hPa | 0 mm | - | 0 W/m² | - |
| 1778043841 | 20.56° C | 54% | 1012.2 hPa | 0 mm | - | 0 W/m² | - |
| 1778043537 | 20.56° C | 53% | 1012.1 hPa | 0 mm | - | 0 W/m² | - |
| 1778043234 | 20.56° C | 53% | 1012 hPa | 0 mm | - | 0 W/m² | - |
* Rain latest hour (hover to see other rain measurements)
** Current wind speed in m/s (hover to see current wind gust speed)